Flag for United Kingdom Weather past 2 weeks in Swansea, Wales, United Kingdom

Now
62 °F

Mild.


Feels Like: 62 °F
Forecast: 59 / 62 °F
Wind: 21 mph from Southwest

Location: Mumbles

Current Time: Aug 28, 2014 at 1:09:24 AM

Latest Report: Aug 28, 2014 at 12:00 AM


Visibility: N/A

Pressure: 29.75 "Hg

Humidity: 95%

Dew point: 61 °F

Location of SwanseaLocation

Historic Weather in Swansea — Graph

°F

Swansea temperature yesterday

Maximum temperature yesterday: 63 °F (at 3:00 PM)
Minimum temperature yesterday: 58 °F (at 7:00 AM)
Average temperature yesterday: 61 °F

Past Weeks' High & Low Weather Summary

 TemperatureHumidityPressure
High66 °F (Aug 13, 2:00 PM)97% (Aug 25, 4:00 AM)30.23 "Hg (Aug 25, 4:00 AM)
Low51 °F (Aug 20, 5:00 AM)47% (Aug 18, 6:00 PM)29.53 "Hg (Aug 26, 12:00 AM)
Average59 °F74%29.93 "Hg
* Reported Aug 12 11:00 PM — Aug 27 11:00 PM, Swansea, Weather by CustomWeather, © 2014

Note: Actual official high and low records may vary slightly from our data, if they occured in-between our weather recording intervals... More about our weather records

Advertising

Swansea weather history for previous 24 hours

 ConditionsComfort  
Time TempWeatherWind HumidityBarometerVisibility
11:00 PM
Aug 27
62 °FCool.26 mph94%29.75 "HgN/A
10:00 PM62 °FCool.28 mph92%29.75 "HgN/A
9:00 PM62 °FCool.32 mph89%29.74 "HgN/A
8:00 PM62 °FCool.31 mph88%29.75 "HgN/A
7:00 PM61 °FCool.28 mph94%29.78 "HgN/A
6:00 PM63 °FMild.26 mph87%29.78 "HgN/A
5:00 PM63 °FMild.29 mph87%29.80 "HgN/A
4:00 PM62 °FMild.32 mph88%29.83 "HgN/A
3:00 PM63 °FMild.31 mph81%29.83 "HgN/A
2:00 PM63 °FMild.30 mph81%29.86 "HgN/A
1:00 PM63 °FMild.23 mph79%29.87 "HgN/A
12:00 PM62 °FCool.26 mph79%29.89 "HgN/A
9:00 AM58 °FCool.22 mph81%29.93 "HgN/A
8:00 AM58 °FCool.24 mph82%29.93 "HgN/A
7:00 AM58 °FCool.23 mph80%29.92 "HgN/A
6:00 AM58 °FCool.22 mph80%29.91 "HgN/A
5:00 AM58 °FCool.18 mph78%29.93 "HgN/A
4:00 AM58 °FCool.20 mph75%29.93 "HgN/A
3:00 AM59 °FCool.23 mph74%29.92 "HgN/A
2:00 AM59 °FCool.22 mph75%29.92 "HgN/A
1:00 AM60 °FCool.21 mph75%29.92 "HgN/A
Weather by CustomWeather, © 2014

See weather overviewHow to use our weather pages